Overview Statistics Trail Chart Weather Telemetry Raw packets
 

This is the latest recevied weather packets stored in our database for station/object DG4CB-13. If no packets are shown the sender has not sent any weather packets the latest 10 day(s).

<< 23 24 25 26 27 28 29 >>
Time Temp. Humidity Pressure Rain* Wind** Luminosity Snow
1787948400 18.89° C 62% 1010.8 hPa - - - -
1787940000 23.33° C 47% 1009.2 hPa - - - -
1787939400 23.89° C 47% 1009.1 hPa - - - -
1787938800 23.89° C 47% 1009.1 hPa - - - -
1787938200 23.89° C 48% 1009.1 hPa - - - -
1787937600 23.33° C 48% 1009.1 hPa - - - -
1787937000 23.89° C 49% 1009 hPa - - - -
1787936400 23.33° C 49% 1009 hPa - - - -
1787935800 23.33° C 50% 1009.1 hPa - - - -
1787935200 23.89° C 50% 1008.9 hPa - - - -
1787934600 23.89° C 58% 1008.9 hPa - - - -
1787934000 23.33° C 59% 1008.7 hPa - - - -
1787933400 23.33° C 65% 1008.6 hPa - - - -
1787932800 22.78° C 65% 1008.4 hPa - - - -
1787932200 23.33° C 64% 1008.8 hPa - - - -
1787931600 22.78° C 66% 1008.8 hPa - - - -
1787931000 22.22° C 69% 1008.7 hPa - - - -
1787930400 22.22° C 71% 1009.1 hPa - - - -
1787929800 22.78° C 67% 1009 hPa - - - -
1787929205 22.78° C 67% 1008.6 hPa - - - -
1787928600 22.78° C 66% 1008.5 hPa - - - -
1787928000 23.33° C 66% 1008.6 hPa - - - -
1787927400 23.89° C 66% 1008.8 hPa - - - -
1787926801 24.44° C 61% 1008.3 hPa - - - -
1787926200 25° C 58% 1008.4 hPa - - - -

* Rain since midnight (hover to see other rain measurements)
** Current wind speed in m/s (hover to see current wind gust speed)